Terminal Aerodrome Forecast
Issued by NWS

Home | Current Version | Previous Version | Text Only | Print | Product List | Glossary On
Versions: 1 2 3 4 5 6 7 8 9 10 11 12 13 14
000
FTAK31 PANC 210200 AAA
TAFAGK
TAF AMD
PAGK 210200Z 2102/2124 15011KT P6SM VCSH SCT040 BKN070 OVC100
     FM210500 VRB04KT P6SM SCT060 BKN100=

USA.gov is the U.S. government's official web portal to all federal, state and local government web resources and services.